Regional Weather Roundup
Issued by NWS State College, PA

Home | Current Version | Previous Version | Graphics & Text | Print | Product List | Glossary Off
Versions: 1 2 3 4 5 6 7 8 9 10 11 12 13 14 15 16 17 18 19 20 21 22 23 24 25 26 27 28 29 30 31 32 33 34 35 36 37 38 39 40 41 42 43 44 45 46 47 48 49 50

635
ASUS41 KCTP 231503
RWRCTP

REGIONAL WEATHER ROUNDUP
NATIONAL WEATHER SERVICE STATE COLLEGE PA
1100 AM EDT THU MAR 23 2017

Note: "fair" indicates few or no clouds below 12,000 feet with no
significant weather and/or obstructions to visibility.

* = STATION THAT DOES NOT REPORT PRECIPITATION /E.G. RAIN...SNOW...ETC/
    THUNDER OR FOG.

PAZ002>004-007>009-013>016-020>023-029>032-231600-
WESTERN PENNSYLVANIA

CITY           SKY/WX    TMP DP  RH WIND       PRES   REMARKS
ERIE           SUNNY     32  16  51 E3        30.60R
MEADVILLE      SUNNY     28  12  51 E6        30.55R
FRANKLIN*      SUNNY     28  10  47 S5        30.55S
NEW CASTLE     FAIR      32  15  49 E6        30.58S
BEAVER COUNTY  SUNNY     32  12  43 E5        30.56R
BUTLER*        SUNNY     30  16  55 E7        30.57S
PITTSBURGH INT PTSUNNY   31  11  43 NE9       30.55R
PITTSBURGH     SUNNY     31   7  36 VRB6      30.55R
INDIANA*       SUNNY     30  12  47 E5        30.57S
LATROBE        SUNNY     32   3  29 E7        30.57
WASHINGTON CO* SUNNY     34   7  32 NE6       30.56S
$$

PAZ004>006-010>012-017>019-024>028-033>037-041-042-045-046-049>053-231600-
CENTRAL PENNSYLVANIA

CITY           SKY/WX    TMP DP  RH WIND       PRES   REMARKS
BRADFORD       SUNNY     26   9  48 CALM      30.49S
DUBOIS         SUNNY     26   7  44 VRB3      30.52R
CLEARFIELD       N/A    N/A N/A N/A MISG      30.55S
JOHNSTOWN      SUNNY     29   7  39 CALM      30.48R
ALTOONA        SUNNY     30  10  43 VRB3      30.56S
STATE COLLEGE  SUNNY     28  10  47 CALM      30.58S
WILLIAMSPORT   SUNNY     31   9  39 SW5       30.62S
SELINSGROVE    SUNNY     30  11  45 VRB3      30.64S
FT INDIANTOWN  SUNNY     31   6  35 NE5       30.62S
CAPITAL CITY   SUNNY     33   7  33 VRB3      30.64F
HARRISBURG     SUNNY     33   9  36 MISG      30.63F
YORK           SUNNY     32   9  38 VRB3      30.62F
$$

PAZ038>040-043-044-047-048-054-055-060>062-067>071-231600-
EASTERN PENNSYLVANIA

CITY           SKY/WX    TMP DP  RH WIND       PRES   REMARKS
SCRANTON       SUNNY     26   5  40 NW7       30.59R
MOUNT POCONO   SUNNY     21   0  39 NW10      30.49S WCI  10
ALLENTOWN      SUNNY     31   7  36 N7        30.62S
QUAKERTOWN*    SUNNY     30   9  40 N6        30.63R
READING        SUNNY     31   9  39 E7        30.63S
LANCASTER      SUNNY     33   9  36 N8        30.63S
COATESVILLE    SUNNY     30   5  34 VRB7      30.62S
POTTSTOWN      SUNNY     31   7  36 N9        30.65R
BLUE BELL      SUNNY     30  10  43 NW5       30.62S
DOYLESTOWN     SUNNY     24   7  48 VRB7      30.61R
WILLOW GROVE   NOT AVBL
NORTH PHILA    SUNNY     34   8  33 NW12      30.65R
PHILADELPHIA   SUNNY     33   6  32 NW5       30.65S
$$




USA.gov is the U.S. government's official web portal to all federal, state and local government web resources and services.